Oklahoma City, OK

7:06 AM CDT on August 20, 2017 (GMT -0500)
Will Rogers World

Weather History for KOKC - January, 2013

Change the Weather History Date:

Tuesday, January 8, 2013

  Actual Average Record
Temperature  
Mean Temperature 42 °F 39 °F  
Max Temperature 55 °F 49 °F 72 °F (2006)
Min Temperature 30 °F 29 °F -4 °F (1988)
Degree Days  
Heating Degree Days 22 26  
Month to date heating degree days 208  
Since 1 July heating degree days 1563  
Moisture  
Dew Point 37 °F    
Average Humidity 75    
Maximum Humidity 93    
Minimum Humidity 43    
Precipitation  
Precipitation 0.01 in 0.04 in 1.45 in (1939)
Month to date precipitation 0.33  
Year to date precipitation 0.33  
Snow  
Snow 0.00 in 0.10 in 7.10 in (1920)
Month to date snowfall 0.7  
Since 1 July snowfall 3.2  
Snow Depth -    
Sea Level Pressure  
Sea Level Pressure 30.08 in    
Wind  
Wind Speed 7 mph (SSE)    
Max Wind Speed 16 mph    
Max Gust Speed -    
Visibility 9 miles    
Events Rain    
T = Trace of Precipitation, MM = Missing Value Source: NWS Daily Summary

Daily Weather History Graph

Daily Weather History Graph

Search for Another Location

Airport or City:

Trip Planner

Search our weather history database for the weather conditions in past years. The results will help you decide how hot, cold, wet, or windy it might be!

Date:

Astronomy

Jan. 08, 2013 Rise Set
Actual Time 7:39 AM CST 5:34 PM CST
Civil Twilight 7:11 AM CST 6:02 PM CST
Nautical Twilight 6:40 AM CST 6:34 PM CST
Astronomical Twilight 6:09 AM CST 7:05 PM CST
Moon 4:15 AM CST (1/8) 2:38 PM CST (1/8)
Length of Visible Light 10h 50m
Length of Day
9h 54m
Waning Crescent, 13% of the Moon is Illuminated
Jan 8
Waning Crescent
Jan 11
New
Jan 18
First Quarter
Jan 26
Full
Feb 3
Last Quarter

Hourly Weather History & Observations

Time (CST) Temp. Windchill Dew Point Humidity Pressure Visibility Wind Dir Wind Speed Gust Speed Precip Events Conditions
12:52 AM 36.0 °F 28.5 °F 28.9 °F 76% 30.06 in 10.0 mi South 10.4 mph - N/A   Mostly Cloudy
1:52 AM 36.0 °F 29.6 °F 28.9 °F 76% 30.07 in 10.0 mi SSE 8.1 mph - N/A   Mostly Cloudy
2:52 AM 32.0 °F 25.6 °F 27.0 °F 82% 30.08 in 10.0 mi SE 6.9 mph - N/A   Mostly Cloudy
3:52 AM 32.0 °F 25.6 °F 27.0 °F 82% 30.06 in 10.0 mi South 6.9 mph - N/A   Scattered Clouds
4:52 AM 33.1 °F 30.0 °F 27.0 °F 78% 30.05 in 10.0 mi ESE 3.5 mph - N/A   Partly Cloudy
5:52 AM 32.0 °F 25.6 °F 27.0 °F 82% 30.06 in 10.0 mi SSE 6.9 mph - N/A   Clear
6:52 AM 30.0 °F 25.2 °F 27.0 °F 88% 30.08 in 10.0 mi South 4.6 mph - N/A   Clear
7:52 AM 32.0 °F 25.6 °F 27.0 °F 82% 30.09 in 10.0 mi South 6.9 mph - N/A   Scattered Clouds
8:52 AM 34.0 °F 31.0 °F 28.9 °F 82% 30.09 in 10.0 mi South 3.5 mph - N/A   Scattered Clouds
9:52 AM 42.1 °F 36.6 °F 33.1 °F 70% 30.09 in 10.0 mi South 9.2 mph - N/A   Scattered Clouds
10:52 AM 50.0 °F - 36.0 °F 59% 30.07 in 10.0 mi South 12.7 mph - N/A   Partly Cloudy
11:52 AM 53.1 °F - 37.0 °F 55% 30.04 in 10.0 mi South 9.2 mph - N/A   Scattered Clouds
12:52 PM 55.9 °F - 37.0 °F 49% 30.02 in 10.0 mi South 16.1 mph - N/A   Mostly Cloudy
1:52 PM 53.1 °F - 37.9 °F 57% 30.02 in 10.0 mi SSE 12.7 mph - N/A   Overcast
2:52 PM 52.0 °F - 39.0 °F 61% 30.04 in 10.0 mi South 10.4 mph - N/A   Overcast
3:52 PM 52.0 °F - 39.0 °F 61% 30.06 in 10.0 mi South 5.8 mph - N/A   Overcast
4:52 PM 50.0 °F - 39.0 °F 66% 30.06 in 9.0 mi Calm Calm - N/A   Overcast
5:52 PM 46.9 °F - 43.0 °F 86% 30.06 in 10.0 mi SE 3.5 mph - 0.00 in   Overcast
6:52 PM 46.9 °F - 43.0 °F 86% 30.09 in 9.0 mi SE 3.5 mph - 0.00 in   Overcast
7:52 PM 46.9 °F - 44.1 °F 90% 30.10 in 7.0 mi SSE 3.5 mph - 0.00 in   Overcast
8:52 PM 48.0 °F - 44.1 °F 86% 30.11 in 7.0 mi NE 4.6 mph - N/A   Overcast
9:52 PM 48.0 °F - 44.1 °F 86% 30.12 in 6.0 mi East 10.4 mph - 0.00 in   Overcast
10:52 PM 46.9 °F - 44.1 °F 90% 30.14 in 7.0 mi East 4.6 mph - N/A   Overcast
11:13 PM 46.4 °F 43.5 °F 44.6 °F 93% 30.15 in 5.0 mi North 5.8 mph - 0.00 in Rain Light Rain
11:23 PM 46.4 °F 44.3 °F 44.6 °F 93% 30.15 in 3.0 mi NNE 4.6 mph - 0.00 in Rain Light Rain